Time,TemperatureF,DewpointF,PressureIn,WindDirection,WindDirectionDegrees,WindSpeedMPH,WindSpeedGustMPH,Humidity,HourlyPrecipIn,Conditions,Clouds,dailyrainin,SoftwareType,DateUTC
2013-08-04 08:05:00,69.0,68.4,29.18,NNW,337,0.0,2.0,98,0.01,,,0.01,Weather View 32 v70,2013-08-04 12:05:00,
2013-08-04 08:30:00,69.0,68.4,29.18,North,360,0.0,2.0,98,0.01,,,0.01,Weather View 32 v70,2013-08-04 12:30:00,
2013-08-04 08:31:00,69.0,68.4,29.18,WNW,292,0.0,5.0,98,0.01,,,0.01,Weather View 32 v70,2013-08-04 12:31:00,
2013-08-04 08:36:00,70.0,69.1,29.18,NNE,22,3.0,5.0,97,0.01,,,0.01,Weather View 32 v70,2013-08-04 12:36:00,
2013-08-04 08:41:00,70.0,67.6,29.18,NNE,22,0.0,7.0,92,0.01,,,0.01,Weather View 32 v70,2013-08-04 12:41:00,
2013-08-04 08:45:00,71.0,68.5,29.18,WSW,247,0.0,7.0,92,0.01,,,0.01,Weather View 32 v70,2013-08-04 12:45:00,
2013-08-04 08:46:00,72.0,60.0,29.19,NW,315,0.0,7.0,66,0.01,,,0.01,Weather View 32 v70,2013-08-04 12:46:00,
2013-08-04 16:09:00,82.0,53.8,29.19,WSW,247,0.0,0.0,38,0.00,,,0.01,Weather View 32 v70,2013-08-04 20:09:00,
2013-08-04 16:14:00,82.0,53.1,29.19,WNW,292,6.0,15.0,37,0.01,,,0.01,Weather View 32 v70,2013-08-04 20:14:00,
2013-08-04 16:19:00,82.0,53.8,29.19,SSW,202,5.0,15.0,38,0.01,,,0.01,Weather View 32 v70,2013-08-04 20:19:00,
2013-08-04 16:24:00,82.0,53.1,29.19,SW,225,9.0,15.0,37,0.01,,,0.01,Weather View 32 v70,2013-08-04 20:24:00,
2013-08-04 16:29:00,82.0,53.8,29.19,North,360,4.0,15.0,38,0.01,,,0.01,Weather View 32 v70,2013-08-04 20:29:00,
2013-08-04 16:34:00,82.0,53.8,29.20,NW,315,4.0,15.0,38,0.01,,,0.01,Weather View 32 v70,2013-08-04 20:34:00,
2013-08-04 16:39:00,82.0,53.8,29.20,West,270,0.0,15.0,38,0.01,,,0.01,Weather View 32 v70,2013-08-04 20:39:00,
2013-08-04 16:44:00,82.0,52.3,29.19,West,270,0.0,15.0,36,0.01,,,0.01,Weather View 32 v70,2013-08-04 20:44:00,
2013-08-04 16:49:00,82.0,51.6,29.19,West,270,4.0,15.0,35,0.01,,,0.01,Weather View 32 v70,2013-08-04 20:49:00,
2013-08-04 16:54:00,82.0,53.1,29.19,SW,225,3.0,15.0,37,0.01,,,0.01,Weather View 32 v70,2013-08-04 20:54:00,
2013-08-04 16:59:00,81.0,52.9,29.20,NW,315,2.0,15.0,38,0.01,,,0.01,Weather View 32 v70,2013-08-04 20:59:00,
2013-08-04 17:04:00,81.0,50.7,29.19,NNW,337,7.0,19.0,35,0.01,,,0.01,Weather View 32 v70,2013-08-04 21:04:00,
2013-08-04 17:09:00,81.0,52.9,29.19,WNW,292,0.0,19.0,38,0.01,,,0.01,Weather View 32 v70,2013-08-04 21:09:00,
2013-08-04 17:14:00,82.0,51.6,29.19,WSW,247,4.0,19.0,35,0.00,,,0.01,Weather View 32 v70,2013-08-04 21:14:00,
2013-08-04 17:19:00,81.0,50.7,29.19,SW,225,7.0,19.0,35,0.00,,,0.01,Weather View 32 v70,2013-08-04 21:19:00,
2013-08-04 17:24:00,80.0,49.0,29.19,North,360,7.0,19.0,34,0.00,,,0.01,Weather View 32 v70,2013-08-04 21:24:00,
2013-08-04 17:29:00,79.0,48.1,29.19,North,360,4.0,19.0,34,0.00,,,0.01,Weather View 32 v70,2013-08-04 21:29:00,
2013-08-04 17:34:00,79.0,50.4,29.18,West,270,0.0,19.0,37,0.00,,,0.01,Weather View 32 v70,2013-08-04 21:34:00,
2013-08-04 17:39:00,80.0,52.0,29.18,West,270,1.0,19.0,38,0.00,,,0.01,Weather View 32 v70,2013-08-04 21:39:00,
2013-08-04 17:45:00,80.0,52.0,29.19,WNW,292,2.0,19.0,38,0.00,,,0.01,Weather View 32 v70,2013-08-04 21:45:00,
2013-08-04 17:49:00,80.0,52.0,29.19,WNW,292,3.0,19.0,38,0.00,,,0.01,Weather View 32 v70,2013-08-04 21:49:00,
2013-08-04 17:54:00,79.0,50.4,29.19,NW,315,6.0,19.0,37,0.00,,,0.01,Weather View 32 v70,2013-08-04 21:54:00,
2013-08-04 17:59:00,79.0,51.8,29.19,North,360,11.0,19.0,39,0.00,,,0.01,Weather View 32 v70,2013-08-04 21:59:00,
2013-08-04 18:04:00,79.0,51.1,29.19,NW,315,3.0,19.0,38,0.00,,,0.01,Weather View 32 v70,2013-08-04 22:04:00,
2013-08-04 18:09:00,79.0,51.1,29.19,WSW,247,3.0,15.0,38,0.00,,,0.01,Weather View 32 v70,2013-08-04 22:09:00,
2013-08-04 18:14:00,78.0,51.0,29.19,West,270,1.0,15.0,39,0.00,,,0.01,Weather View 32 v70,2013-08-04 22:14:00,
2013-08-04 18:19:00,79.0,51.8,29.19,NW,315,5.0,15.0,39,0.00,,,0.01,Weather View 32 v70,2013-08-04 22:19:00,
2013-08-04 18:24:00,79.0,51.8,29.20,NW,315,0.0,15.0,39,0.00,,,0.01,Weather View 32 v70,2013-08-04 22:24:00,
2013-08-04 18:29:00,78.0,51.0,29.19,WNW,292,2.0,15.0,39,0.00,,,0.01,Weather View 32 v70,2013-08-04 22:29:00,
2013-08-04 18:34:00,78.0,49.5,29.19,WNW,292,2.0,15.0,37,0.00,,,0.01,Weather View 32 v70,2013-08-04 22:34:00,
2013-08-04 18:39:00,78.0,50.3,29.19,WNW,292,3.0,15.0,38,0.00,,,0.01,Weather View 32 v70,2013-08-04 22:39:00,
2013-08-04 18:44:00,77.0,50.1,29.19,NW,315,8.0,15.0,39,0.00,,,0.01,Weather View 32 v70,2013-08-04 22:44:00,
2013-08-04 18:49:00,77.0,50.1,29.19,WNW,292,2.0,15.0,39,0.00,,,0.01,Weather View 32 v70,2013-08-04 22:49:00,
2013-08-04 18:50:00,74.0,50.0,29.20,NNE,22,1.0,15.0,43,0.00,,,0.01,Weather View 32 v70,2013-08-04 22:50:00,
2013-08-04 19:43:00,75.0,50.9,29.20,NNW,337,3.0,12.0,43,0.00,,,0.01,Weather View 32 v70,2013-08-04 23:43:00,
2013-08-04 19:48:00,74.0,50.6,29.20,North,360,0.0,10.0,44,0.00,,,0.01,Weather View 32 v70,2013-08-04 23:48:00,
2013-08-04 19:53:00,74.0,51.2,29.20,North,360,0.0,5.0,45,0.01,,,0.01,Weather View 32 v70,2013-08-04 23:53:00,
2013-08-04 19:58:00,74.0,51.2,29.20,North,360,0.0,5.0,45,0.01,,,0.01,Weather View 32 v70,2013-08-04 23:58:00,
2013-08-04 20:03:00,73.0,50.3,29.20,North,360,0.0,5.0,45,0.01,,,0.01,Weather View 32 v70,2013-08-05 00:03:00,
2013-08-04 20:08:00,73.0,50.9,29.20,North,360,0.0,5.0,46,0.01,,,0.01,Weather View 32 v70,2013-08-05 00:08:00,
2013-08-04 20:13:00,72.0,50.6,29.20,North,360,0.0,5.0,47,0.01,,,0.01,Weather View 32 v70,2013-08-05 00:13:00,
2013-08-04 20:18:00,71.0,51.4,29.20,North,360,0.0,5.0,50,0.01,,,0.01,Weather View 32 v70,2013-08-05 00:18:00,
2013-08-04 20:23:00,71.0,51.9,29.20,North,360,0.0,5.0,51,0.01,,,0.01,Weather View 32 v70,2013-08-05 00:23:00,
2013-08-04 20:28:00,70.0,52.0,29.20,North,360,0.0,5.0,53,0.01,,,0.01,Weather View 32 v70,2013-08-05 00:28:00,
2013-08-04 20:33:00,70.0,52.5,29.20,North,360,0.0,5.0,54,0.01,,,0.01,Weather View 32 v70,2013-08-05 00:33:00,
2013-08-04 20:38:00,69.0,52.1,29.20,North,360,0.0,5.0,55,0.01,,,0.01,Weather View 32 v70,2013-08-05 00:38:00,
2013-08-04 20:44:00,69.0,52.6,29.20,North,360,0.0,5.0,56,0.00,,,0.01,Weather View 32 v70,2013-08-05 00:44:00,
2013-08-04 20:48:00,68.0,52.6,29.20,North,360,0.0,5.0,58,0.00,,,0.01,Weather View 32 v70,2013-08-05 00:48:00,
2013-08-04 20:53:00,68.0,53.1,29.20,North,360,0.0,5.0,59,0.00,,,0.01,Weather View 32 v70,2013-08-05 00:53:00,
2013-08-04 20:59:00,67.0,53.5,29.20,North,360,0.0,0.0,62,0.00,,,0.01,Weather View 32 v70,2013-08-05 00:59:00,
2013-08-04 21:04:00,67.0,53.5,29.20,North,360,0.0,0.0,62,0.00,,,0.01,Weather View 32 v70,2013-08-05 01:04:00,
2013-08-04 21:09:00,66.0,52.6,29.20,North,360,0.0,0.0,62,0.00,,,0.01,Weather View 32 v70,2013-08-05 01:09:00,
2013-08-04 21:14:00,66.0,53.0,29.20,North,360,0.0,0.0,63,0.00,,,0.01,Weather View 32 v70,2013-08-05 01:14:00,
2013-08-04 21:18:00,66.0,53.4,29.20,North,360,0.0,0.0,64,0.00,,,0.01,Weather View 32 v70,2013-08-05 01:18:00,
2013-08-04 21:25:00,65.0,54.2,29.20,North,360,0.0,0.0,68,0.00,,,0.01,Weather View 32 v70,2013-08-05 01:25:00,
2013-08-04 21:29:00,65.0,54.6,29.20,North,360,0.0,0.0,69,0.00,,,0.01,Weather View 32 v70,2013-08-05 01:29:00,
2013-08-04 21:35:00,64.0,54.0,29.20,North,360,0.0,0.0,70,0.00,,,0.01,Weather View 32 v70,2013-08-05 01:35:00,
2013-08-04 21:40:00,64.0,54.8,29.20,North,360,0.0,0.0,72,0.00,,,0.01,Weather View 32 v70,2013-08-05 01:40:00,
2013-08-04 21:45:00,64.0,55.1,29.20,North,360,0.0,0.0,73,0.00,,,0.01,Weather View 32 v70,2013-08-05 01:45:00,
2013-08-04 21:50:00,63.0,55.3,29.20,North,360,0.0,0.0,76,0.00,,,0.01,Weather View 32 v70,2013-08-05 01:50:00,
2013-08-04 21:55:00,63.0,55.7,29.20,North,360,0.0,0.0,77,0.00,,,0.01,Weather View 32 v70,2013-08-05 01:55:00,
2013-08-04 21:59:00,63.0,56.4,29.20,North,360,0.0,0.0,79,0.00,,,0.01,Weather View 32 v70,2013-08-05 01:59:00,
2013-08-04 22:05:00,63.0,58.1,29.20,North,360,0.0,0.0,84,0.00,,,0.01,Weather View 32 v70,2013-08-05 02:05:00,
2013-08-04 22:10:00,63.0,58.1,29.21,North,360,0.0,0.0,84,0.00,,,0.01,Weather View 32 v70,2013-08-05 02:10:00,
2013-08-04 22:15:00,62.0,57.8,29.21,North,360,0.0,0.0,86,0.00,,,0.01,Weather View 32 v70,2013-08-05 02:15:00,
2013-08-04 22:19:00,62.0,57.4,29.21,North,360,0.0,0.0,85,0.00,,,0.01,Weather View 32 v70,2013-08-05 02:19:00,
2013-08-04 22:25:00,62.0,58.1,29.21,North,360,0.0,0.0,87,0.00,,,0.01,Weather View 32 v70,2013-08-05 02:25:00,
2013-08-04 22:30:00,62.0,58.1,29.21,North,360,0.0,0.0,87,0.00,,,0.01,Weather View 32 v70,2013-08-05 02:30:00,
2013-08-04 22:35:00,62.0,58.4,29.21,North,360,0.0,0.0,88,0.00,,,0.01,Weather View 32 v70,2013-08-05 02:35:00,
2013-08-04 22:40:00,62.0,59.0,29.21,North,360,0.0,0.0,90,0.00,,,0.01,Weather View 32 v70,2013-08-05 02:40:00,
2013-08-04 22:45:00,61.0,58.7,29.21,North,360,0.0,0.0,92,0.00,,,0.01,Weather View 32 v70,2013-08-05 02:45:00,
2013-08-04 22:50:00,61.0,58.7,29.21,North,360,0.0,0.0,92,0.00,,,0.01,Weather View 32 v70,2013-08-05 02:50:00,
2013-08-04 22:55:00,61.0,58.7,29.21,North,360,0.0,0.0,92,0.00,,,0.01,Weather View 32 v70,2013-08-05 02:55:00,
2013-08-04 23:00:00,61.0,59.3,29.21,North,360,0.0,0.0,94,0.00,,,0.01,Weather View 32 v70,2013-08-05 03:00:00,
2013-08-04 23:05:00,61.0,59.6,29.21,North,360,0.0,0.0,95,0.00,,,0.01,Weather View 32 v70,2013-08-05 03:05:00,
2013-08-04 23:10:00,60.0,58.9,29.21,North,360,0.0,0.0,96,0.00,,,0.01,Weather View 32 v70,2013-08-05 03:10:00,
2013-08-04 23:15:00,60.0,59.1,29.21,North,360,0.0,0.0,97,0.00,,,0.01,Weather View 32 v70,2013-08-05 03:15:00,
2013-08-04 23:20:00,60.0,59.1,29.21,North,360,0.0,0.0,97,0.00,,,0.01,Weather View 32 v70,2013-08-05 03:20:00,
2013-08-04 23:25:00,60.0,59.4,29.21,North,360,0.0,0.0,98,0.00,,,0.01,Weather View 32 v70,2013-08-05 03:25:00,
2013-08-04 23:30:00,60.0,59.7,29.21,North,360,0.0,0.0,99,0.00,,,0.01,Weather View 32 v70,2013-08-05 03:30:00,
2013-08-04 23:35:00,60.0,59.7,29.22,North,360,0.0,0.0,99,0.00,,,0.01,Weather View 32 v70,2013-08-05 03:35:00,
2013-08-04 23:40:00,60.0,59.7,29.22,North,360,0.0,0.0,99,0.00,,,0.01,Weather View 32 v70,2013-08-05 03:40:00,
2013-08-04 23:45:00,61.0,60.7,29.22,North,360,0.0,0.0,99,0.00,,,0.01,Weather View 32 v70,2013-08-05 03:45:00,
2013-08-04 23:50:00,61.0,60.7,29.22,North,360,0.0,0.0,99,0.00,,,0.01,Weather View 32 v70,2013-08-05 03:50:00,
2013-08-04 23:55:00,60.0,60.0,29.22,North,360,0.0,0.0,100,0.00,,,0.01,Weather View 32 v70,2013-08-05 03:55:00,